This is the latest recevied weather packets stored in our database for station/object W1GK. If no packets are shown the sender has not sent any weather packets the latest 10 day(s).
| Time | Temp. | Humidity | Pressure | Rain* | Wind** | Luminosity | Snow |
|---|---|---|---|---|---|---|---|
| 1777834802 | 31.67° C | 9% | 1010.4 hPa | 0 mm | - | 990 W/m² | - |
| 1777834200 | 31.67° C | 9% | 1010.7 hPa | 0 mm | - | 951 W/m² | - |
| 1777833600 | 30° C | 10% | 1010.9 hPa | 0 mm | - | 930 W/m² | - |
| 1777833000 | 30° C | 9% | 1010.9 hPa | 0 mm | - | 896 W/m² | - |
| 1777832401 | 28.33° C | 9% | 1011.1 hPa | 0 mm | - | 893 W/m² | - |
| 1777831802 | 28.33° C | 9% | 1011.2 hPa | 0 mm | - | 849 W/m² | - |
| 1777831203 | 28.33° C | 9% | 1011.3 hPa | 0 mm | - | 826 W/m² | - |
| 1777830601 | 27.78° C | 9% | 1011.5 hPa | 0 mm | - | 814 W/m² | - |
| 1777830000 | 27.22° C | 9% | 1011.7 hPa | 0 mm | - | 798 W/m² | - |
| 1777829402 | 27.22° C | 9% | 1011.8 hPa | 0 mm | - | 782 W/m² | - |
| 1777828799 | 26.67° C | 9% | 1012.1 hPa | 0 mm | - | 763 W/m² | - |
| 1777828199 | 26.11° C | 10% | 1012.1 hPa | 0 mm | - | 740 W/m² | - |
| 1777827599 | 26.67° C | 9% | 1012.2 hPa | 0 mm | - | 721 W/m² | - |
| 1777826998 | 26.11° C | 10% | 1012.2 hPa | 0 mm | - | 698 W/m² | - |
| 1777826399 | 25.56° C | 10% | 1012.4 hPa | 0 mm | - | 677 W/m² | - |
| 1777825799 | 25.56° C | 10% | 1012.4 hPa | 0 mm | - | 654 W/m² | - |
| 1777825199 | 25° C | 10% | 1012.4 hPa | 0 mm | - | 635 W/m² | - |
| 1777824599 | 25° C | 11% | 1012.5 hPa | 0 mm | - | 617 W/m² | - |
| 1777823999 | 24.44° C | 11% | 1012.5 hPa | 0 mm | - | 577 W/m² | - |
| 1777823399 | 23.89° C | 12% | 1012.5 hPa | 0 mm | - | 538 W/m² | - |
| 1777822799 | 23.33° C | 12% | 1012.6 hPa | 0 mm | - | 506 W/m² | - |
| 1777822200 | 22.78° C | 14% | 1012.6 hPa | 0 mm | - | 478 W/m² | - |
| 1777821601 | 22.22° C | 13% | 1012.6 hPa | 0 mm | - | 446 W/m² | - |
| 1777820998 | 21.67° C | 13% | 1012.5 hPa | 0 mm | - | 415 W/m² | - |
| 1777820402 | 21.67° C | 12% | 1012.6 hPa | 0 mm | - | 383 W/m² | - |
* Rain latest hour (hover to see other rain measurements)
** Current wind speed in m/s (hover to see current wind gust speed)